Location: The Saddle
(36.8333°N, 80.3417°W)
Time: 20:31:03
(UTC-05:00)

A-11 Canister half - Pass Details

Date: 10 December 2023
Orbit: 1526 x 1682 km, 47.3° (Epoch: 25 February)

Event Time Altitude Azimuth Distance (km) Brightness Sun altitude
Rises 01:53:26 0° 298° (WNW) 4,893 - -64.4°
Reaches altitude 10° 01:56:59 10° 290° (WNW) 3,883 - -63.8°
Maximum altitude 02:05:27 34° 231° (SW) 2,433 - -62.3°
Drops below altitude 10° 02:13:42 10° 171° (S) 3,763 - -60.7°
Sets 02:17:07 0° 162° (SSE) 4,724 - -60.1°
